This is the latest recevied weather packets stored in our database for station/object K6CQU-13. If no packets are shown the sender has not sent any weather packets the latest 10 day(s).
| Time | Temp. | Humidity | Pressure | Rain* | Wind** | Luminosity | Snow |
|---|---|---|---|---|---|---|---|
| 1778118017 | 22.78° C | 62% | 1016.7 hPa | 0 mm | - | 41 W/m² | - |
| 1778117717 | 23.33° C | 61% | 1016.7 hPa | 0 mm | - | 42 W/m² | - |
| 1778117417 | 23.33° C | 60% | 1016.7 hPa | 0 mm | - | 44 W/m² | - |
| 1778117117 | 23.33° C | 59% | 1016.7 hPa | 0 mm | - | 44 W/m² | - |
| 1778116817 | 23.33° C | 59% | 1016.7 hPa | 0 mm | - | 44 W/m² | - |
| 1778116517 | 23.33° C | 59% | 1016.7 hPa | 0 mm | - | 45 W/m² | - |
| 1778116217 | 23.33° C | 58% | 1016.8 hPa | 0 mm | - | 46 W/m² | - |
| 1778115917 | 23.89° C | 58% | 1016.7 hPa | 0 mm | - | 47 W/m² | - |
| 1778115617 | 23.89° C | 57% | 1016.7 hPa | 0 mm | - | 77 W/m² | - |
| 1778115317 | 23.89° C | 57% | 1016.7 hPa | 0 mm | - | 298 W/m² | - |
| 1778115017 | 23.33° C | 57% | 1016.7 hPa | 0 mm | - | 357 W/m² | - |
| 1778114717 | 23.33° C | 56% | 1016.7 hPa | 0 mm | - | 372 W/m² | - |
| 1778114417 | 23.33° C | 56% | 1016.8 hPa | 0 mm | - | 389 W/m² | - |
| 1778114117 | 23.89° C | 55% | 1016.8 hPa | 0 mm | - | 408 W/m² | - |
| 1778113817 | 23.89° C | 55% | 1016.9 hPa | 0 mm | - | 425 W/m² | - |
| 1778113517 | 23.89° C | 54% | 1016.8 hPa | 0 mm | - | 441 W/m² | - |
| 1778113217 | 23.89° C | 54% | 1016.8 hPa | 0 mm | - | 459 W/m² | - |
| 1778112917 | 23.89° C | 54% | 1016.9 hPa | 0 mm | - | 474 W/m² | - |
| 1778112617 | 24.44° C | 54% | 1016.9 hPa | 0 mm | - | 490 W/m² | - |
| 1778112317 | 23.89° C | 54% | 1016.9 hPa | 0 mm | - | 505 W/m² | - |
| 1778112017 | 23.89° C | 55% | 1016.8 hPa | 0 mm | - | 520 W/m² | - |
| 1778111717 | 23.89° C | 55% | 1016.9 hPa | 0 mm | - | 534 W/m² | - |
| 1778111417 | 23.89° C | 56% | 1016.9 hPa | 0 mm | - | 549 W/m² | - |
| 1778111117 | 24.44° C | 55% | 1016.9 hPa | 0 mm | - | 563 W/m² | - |
| 1778110817 | 24.44° C | 56% | 1017 hPa | 0 mm | - | 578 W/m² | - |
* Rain latest hour (hover to see other rain measurements)
** Current wind speed in m/s (hover to see current wind gust speed)